Time,TemperatureF,DewpointF,PressureIn,WindDirection,WindDirectionDegrees,WindSpeedMPH,WindSpeedGustMPH,Humidity,HourlyPrecipIn,Conditions,Clouds,dailyrainin,SolarRadiationWatts/m^2,SoftwareType,DateUTC
2013-04-30 00:00:00,52.6,46.9,30.13,SW,236,0.0,1.0,81,0.00,,---,0.01,0.00,VWS V14.01,2013-04-29 22:00:00,
2013-04-30 00:10:00,52.4,47.1,30.13,SW,236,0.0,0.0,82,0.00,,---,0.00,0.00,VWS V14.01,2013-04-29 22:10:00,
2013-04-30 00:15:00,52.3,47.0,30.13,SW,236,0.0,0.0,82,0.00,,---,0.00,0.00,VWS V14.01,2013-04-29 22:15:00,
2013-04-30 00:20:00,52.3,47.0,30.13,SW,236,0.0,0.0,82,0.00,,---,0.00,0.00,VWS V14.01,2013-04-29 22:20:00,
2013-04-30 00:30:00,52.0,46.7,30.13,SW,236,0.0,0.0,82,0.00,,---,0.00,0.00,VWS V14.01,2013-04-29 22:30:00,
2013-04-30 00:35:00,51.9,46.6,30.13,SW,236,0.0,0.0,82,0.00,,---,0.00,0.00,VWS V14.01,2013-04-29 22:35:00,
2013-04-30 00:40:00,51.8,46.8,30.13,SW,236,0.0,0.0,83,0.00,,---,0.00,0.00,VWS V14.01,2013-04-29 22:40:00,
2013-04-30 00:45:00,51.8,46.8,30.13,SW,236,0.0,0.0,83,0.00,,---,0.00,0.00,VWS V14.01,2013-04-29 22:45:00,
2013-04-30 00:50:00,51.7,46.7,30.13,SW,236,0.0,0.0,83,0.00,,---,0.00,0.00,VWS V14.01,2013-04-29 22:50:00,
2013-04-30 00:55:00,51.6,46.6,30.13,SW,236,0.0,0.0,83,0.00,,---,0.00,0.00,VWS V14.01,2013-04-29 22:55:00,
2013-04-30 01:00:00,51.5,46.5,30.13,SW,236,0.0,2.0,83,0.00,,---,0.00,0.00,VWS V14.01,2013-04-29 23:00:00,
2013-04-30 01:10:00,51.4,46.4,30.13,SW,236,0.0,0.0,83,0.00,,---,0.00,0.00,VWS V14.01,2013-04-29 23:10:00,
2013-04-30 01:15:00,51.4,46.4,30.12,SW,236,0.0,0.0,83,0.00,,---,0.00,0.00,VWS V14.01,2013-04-29 23:15:00,
2013-04-30 01:20:00,51.3,46.6,30.12,SW,236,0.0,0.0,84,0.00,,---,0.00,0.00,VWS V14.01,2013-04-29 23:20:00,
2013-04-30 01:25:00,51.3,46.6,30.12,SW,236,2.0,2.0,84,0.00,,---,0.00,0.00,VWS V14.01,2013-04-29 23:25:00,
2013-04-30 01:35:00,51.1,46.4,30.13,WSW,246,2.0,4.0,84,0.00,,---,0.00,0.00,VWS V14.01,2013-04-29 23:35:00,
2013-04-30 01:40:00,51.0,46.7,30.13,WSW,246,0.0,0.0,85,0.00,,---,0.00,0.00,VWS V14.01,2013-04-29 23:40:00,
2013-04-30 01:45:00,51.0,46.7,30.13,WSW,239,0.0,4.0,85,0.00,,---,0.00,0.00,VWS V14.01,2013-04-29 23:45:00,
2013-04-30 01:55:00,50.9,46.6,30.13,SW,233,1.0,1.0,85,0.00,,---,0.00,0.00,VWS V14.01,2013-04-29 23:55:00,
2013-04-30 02:00:00,50.9,46.6,30.13,SW,233,0.0,0.0,85,0.00,,---,0.00,0.00,VWS V14.01,2013-04-30 00:00:00,
2013-04-30 02:10:00,50.9,46.6,30.13,SW,234,0.0,1.0,85,0.00,,---,0.00,0.00,VWS V14.01,2013-04-30 00:10:00,
2013-04-30 02:15:00,50.9,46.6,30.13,WSW,237,0.0,3.0,85,0.00,,---,0.00,0.00,VWS V14.01,2013-04-30 00:15:00,
2013-04-30 02:25:00,50.9,46.6,30.13,WSW,238,1.0,3.0,85,0.00,,---,0.00,0.00,VWS V14.01,2013-04-30 00:25:00,
2013-04-30 02:30:00,50.9,46.6,30.12,WSW,238,0.0,0.0,85,0.00,,---,0.00,0.00,VWS V14.01,2013-04-30 00:30:00,
2013-04-30 02:35:00,50.9,46.6,30.12,WSW,238,0.0,0.0,85,0.00,,---,0.00,0.00,VWS V14.01,2013-04-30 00:35:00,
2013-04-30 02:45:00,50.9,46.6,30.12,WSW,240,0.0,0.0,85,0.00,,---,0.00,0.00,VWS V14.01,2013-04-30 00:45:00,
2013-04-30 02:50:00,51.0,46.7,30.12,WSW,240,0.0,0.0,85,0.00,,---,0.00,0.00,VWS V14.01,2013-04-30 00:50:00,
2013-04-30 02:55:00,51.0,46.7,30.12,WSW,240,0.0,0.0,85,0.00,,---,0.00,0.00,VWS V14.01,2013-04-30 00:55:00,
2013-04-30 03:05:00,51.0,46.7,30.13,WSW,240,0.0,2.0,85,0.00,,---,0.00,0.00,VWS V14.01,2013-04-30 01:05:00,
2013-04-30 03:10:00,51.0,46.7,30.13,WSW,240,0.0,2.0,85,0.00,,---,0.00,0.00,VWS V14.01,2013-04-30 01:10:00,
2013-04-30 03:15:00,51.0,46.7,30.12,WSW,240,0.0,0.0,85,0.00,,---,0.00,0.00,VWS V14.01,2013-04-30 01:15:00,
2013-04-30 03:20:00,51.0,46.7,30.12,WSW,240,2.0,3.0,85,0.00,,---,0.00,0.00,VWS V14.01,2013-04-30 01:20:00,
2013-04-30 03:30:00,51.0,46.7,30.13,WSW,238,0.0,2.0,85,0.00,,---,0.00,0.00,VWS V14.01,2013-04-30 01:30:00,
2013-04-30 03:35:00,51.0,46.7,30.13,WSW,238,0.0,0.0,85,0.00,,---,0.00,0.00,VWS V14.01,2013-04-30 01:35:00,
2013-04-30 03:40:00,51.0,46.7,30.13,WSW,238,0.0,0.0,85,0.00,,---,0.00,0.00,VWS V14.01,2013-04-30 01:40:00,
2013-04-30 03:50:00,50.9,46.6,30.12,WSW,239,0.0,0.0,85,0.00,,---,0.00,0.00,VWS V14.01,2013-04-30 01:50:00,
2013-04-30 03:55:00,50.9,46.6,30.12,WSW,238,0.0,1.0,85,0.00,,---,0.00,0.00,VWS V14.01,2013-04-30 01:55:00,
2013-04-30 04:00:00,50.8,46.5,30.13,WSW,239,0.0,0.0,85,0.00,,---,0.00,0.00,VWS V14.01,2013-04-30 02:00:00,
2013-04-30 04:10:00,50.7,46.7,30.13,WSW,238,0.0,2.0,86,0.00,,---,0.00,0.00,VWS V14.01,2013-04-30 02:10:00,
2013-04-30 04:15:00,50.7,46.7,30.13,WSW,238,0.0,0.0,86,0.00,,---,0.00,0.00,VWS V14.01,2013-04-30 02:15:00,
2013-04-30 04:25:00,50.7,46.7,30.13,WSW,239,0.0,0.0,86,0.00,,---,0.00,0.00,VWS V14.01,2013-04-30 02:25:00,
2013-04-30 04:30:00,50.6,46.6,30.13,WSW,239,0.0,0.0,86,0.00,,---,0.00,0.00,VWS V14.01,2013-04-30 02:30:00,
2013-04-30 04:35:00,50.6,46.6,30.13,WSW,239,0.0,0.0,86,0.00,,---,0.00,0.00,VWS V14.01,2013-04-30 02:35:00,
2013-04-30 04:40:00,50.7,46.7,30.13,WSW,240,0.0,0.0,86,0.00,,---,0.00,0.00,VWS V14.01,2013-04-30 02:40:00,
2013-04-30 04:45:00,50.6,46.6,30.13,WSW,238,0.0,0.0,86,0.00,,---,0.00,0.00,VWS V14.01,2013-04-30 02:45:00,
2013-04-30 04:55:00,50.7,46.7,30.13,WSW,239,0.0,0.0,86,0.00,,---,0.00,0.00,VWS V14.01,2013-04-30 02:55:00,
2013-04-30 05:00:00,50.6,46.6,30.12,WSW,240,0.0,0.0,86,0.00,,---,0.00,0.00,VWS V14.01,2013-04-30 03:00:00,
2013-04-30 05:10:00,50.6,46.6,30.12,WSW,238,0.0,0.0,86,0.00,,---,0.00,0.00,VWS V14.01,2013-04-30 03:10:00,
2013-04-30 05:15:00,50.5,46.5,30.11,WSW,240,0.0,0.0,86,0.00,,---,0.00,0.00,VWS V14.01,2013-04-30 03:15:00,
2013-04-30 05:20:00,50.5,46.5,30.11,WSW,238,0.0,0.0,86,0.00,,---,0.00,0.00,VWS V14.01,2013-04-30 03:20:00,
2013-04-30 05:25:00,50.5,46.5,30.11,WSW,239,0.0,0.0,86,0.00,,---,0.00,0.00,VWS V14.01,2013-04-30 03:25:00,
2013-04-30 05:30:00,50.5,46.5,30.12,WSW,239,0.0,0.0,86,0.00,,---,0.00,0.00,VWS V14.01,2013-04-30 03:30:00,
2013-04-30 05:35:00,50.5,46.5,30.12,WSW,239,0.0,0.0,86,0.00,,---,0.00,0.00,VWS V14.01,2013-04-30 03:35:00,
2013-04-30 05:45:00,50.5,46.5,30.12,WSW,238,0.0,0.0,86,0.00,,---,0.00,0.00,VWS V14.01,2013-04-30 03:45:00,
2013-04-30 05:55:00,50.5,46.5,30.12,WSW,239,0.0,0.0,86,0.00,,---,0.00,9.00,VWS V14.01,2013-04-30 03:55:00,
2013-04-30 06:00:00,50.5,46.5,30.12,WSW,238,0.0,0.0,86,0.00,,---,0.00,12.00,VWS V14.01,2013-04-30 04:00:00,
2013-04-30 06:05:00,50.4,46.7,30.12,WSW,238,0.0,0.0,87,0.00,,---,0.00,16.00,VWS V14.01,2013-04-30 04:05:00,
2013-04-30 06:10:00,50.4,46.7,30.12,WSW,238,0.0,0.0,87,0.00,,---,0.00,19.00,VWS V14.01,2013-04-30 04:10:00,
2013-04-30 06:15:00,50.4,46.7,30.12,WSW,239,0.0,0.0,87,0.00,,---,0.00,19.00,VWS V14.01,2013-04-30 04:15:00,
2013-04-30 06:25:00,50.4,46.7,30.12,WSW,238,0.0,0.0,87,0.00,,---,0.00,28.00,VWS V14.01,2013-04-30 04:25:00,
2013-04-30 06:30:00,50.4,46.7,30.12,WSW,239,0.0,0.0,87,0.00,,---,0.00,40.00,VWS V14.01,2013-04-30 04:30:00,
2013-04-30 06:35:00,50.4,46.7,30.12,WSW,239,0.0,0.0,87,0.00,,---,0.00,56.00,VWS V14.01,2013-04-30 04:35:00,
2013-04-30 06:40:00,50.4,46.7,30.12,WSW,239,0.0,0.0,87,0.00,,---,0.00,67.00,VWS V14.01,2013-04-30 04:40:00,
2013-04-30 06:50:00,50.5,46.8,30.13,WSW,239,0.0,0.0,87,0.00,,---,0.00,90.00,VWS V14.01,2013-04-30 04:50:00,
2013-04-30 06:55:00,50.6,46.9,30.13,WSW,238,0.0,0.0,87,0.00,,---,0.00,109.00,VWS V14.01,2013-04-30 04:55:00,
2013-04-30 07:00:00,50.7,47.0,30.13,WSW,240,0.0,0.0,87,0.00,,---,0.00,120.00,VWS V14.01,2013-04-30 05:00:00,
2013-04-30 07:10:00,50.9,47.2,30.13,WSW,239,0.0,0.0,87,0.00,,---,0.00,90.00,VWS V14.01,2013-04-30 05:10:00,
2013-04-30 07:15:00,51.0,47.3,30.13,WSW,239,0.0,0.0,87,0.00,,---,0.00,98.00,VWS V14.01,2013-04-30 05:15:00,
2013-04-30 07:25:00,51.2,47.5,30.13,SSW,198,0.0,2.0,87,0.00,,---,0.00,165.00,VWS V14.01,2013-04-30 05:25:00,
2013-04-30 07:35:00,51.4,47.4,30.13,South,191,0.0,0.0,86,0.00,,---,0.00,185.00,VWS V14.01,2013-04-30 05:35:00,
2013-04-30 07:40:00,51.7,47.3,30.13,East,98,0.0,1.0,85,0.00,,---,0.00,204.00,VWS V14.01,2013-04-30 05:40:00,
2013-04-30 07:45:00,51.9,47.5,30.13,East,98,0.0,0.0,85,0.00,,---,0.00,193.00,VWS V14.01,2013-04-30 05:45:00,
2013-04-30 07:55:00,52.2,47.5,30.13,East,95,0.0,0.0,84,0.00,,---,0.00,113.00,VWS V14.01,2013-04-30 05:55:00,
2013-04-30 08:00:00,52.3,47.0,30.13,East,95,0.0,4.0,82,0.00,,---,0.00,148.00,VWS V14.01,2013-04-30 06:00:00,
2013-04-30 08:10:00,52.6,46.9,30.13,NE,46,0.0,5.0,81,0.00,,---,0.00,248.00,VWS V14.01,2013-04-30 06:10:00,
2013-04-30 08:20:00,53.0,47.3,30.13,ENE,57,4.0,4.0,81,0.00,,---,0.00,299.00,VWS V14.01,2013-04-30 06:20:00,
2013-04-30 08:25:00,53.2,47.2,30.13,ENE,70,0.0,4.0,80,0.00,,---,0.00,334.00,VWS V14.01,2013-04-30 06:25:00,
2013-04-30 08:30:00,53.6,47.3,30.13,ENE,68,0.0,3.0,79,0.00,,---,0.00,360.00,VWS V14.01,2013-04-30 06:30:00,
2013-04-30 08:35:00,53.9,47.5,30.13,NNE,26,2.0,4.0,79,0.00,,---,0.00,366.00,VWS V14.01,2013-04-30 06:35:00,
2013-04-30 08:45:00,54.5,47.8,30.12,NNE,16,5.0,6.0,78,0.00,,---,0.00,373.00,VWS V14.01,2013-04-30 06:45:00,
2013-04-30 08:50:00,54.7,47.6,30.12,NE,46,3.0,3.0,77,0.00,,---,0.00,397.00,VWS V14.01,2013-04-30 06:50:00,
2013-04-30 08:55:00,55.0,47.9,30.12,NE,43,0.0,4.0,77,0.00,,---,0.00,406.00,VWS V14.01,2013-04-30 06:55:00,
2013-04-30 09:05:00,55.3,48.2,30.12,NE,44,2.0,5.0,77,0.00,,---,0.00,438.00,VWS V14.01,2013-04-30 07:05:00,
2013-04-30 09:10:00,55.0,48.3,30.12,NNE,22,0.0,3.0,78,0.00,,---,0.00,454.00,VWS V14.01,2013-04-30 07:10:00,
2013-04-30 09:15:00,55.7,48.3,30.12,NNE,29,4.0,5.0,76,0.00,,---,0.00,468.00,VWS V14.01,2013-04-30 07:15:00,
2013-04-30 09:20:00,56.1,48.7,30.12,East,94,4.0,5.0,76,0.00,,---,0.00,490.00,VWS V14.01,2013-04-30 07:20:00,
2013-04-30 09:25:00,55.9,48.1,30.12,East,96,4.0,7.0,75,0.00,,---,0.00,517.00,VWS V14.01,2013-04-30 07:25:00,
2013-04-30 09:35:00,56.1,48.3,30.13,East,87,4.0,5.0,75,0.00,,---,0.00,399.00,VWS V14.01,2013-04-30 07:35:00,
2013-04-30 09:40:00,56.4,48.6,30.13,ENE,71,3.0,4.0,75,0.00,,---,0.00,540.00,VWS V14.01,2013-04-30 07:40:00,
2013-04-30 09:50:00,57.0,48.8,30.11,NE,50,2.0,6.0,74,0.00,,---,0.00,555.00,VWS V14.01,2013-04-30 07:50:00,
2013-04-30 10:00:00,56.8,48.2,30.11,NE,48,0.0,1.0,73,0.00,,---,0.00,573.00,VWS V14.01,2013-04-30 08:00:00,
2013-04-30 10:05:00,58.1,48.8,30.11,ENE,67,0.0,6.0,71,0.00,,---,0.00,598.00,VWS V14.01,2013-04-30 08:05:00,
2013-04-30 10:10:00,58.5,49.1,30.11,ENE,68,3.0,5.0,71,0.00,,---,0.00,617.00,VWS V14.01,2013-04-30 08:10:00,
2013-04-30 10:15:00,58.8,49.4,30.11,ESE,103,0.0,1.0,71,0.00,,---,0.00,633.00,VWS V14.01,2013-04-30 08:15:00,
2013-04-30 10:25:00,59.0,49.2,30.11,East,94,6.0,7.0,70,0.00,,---,0.00,315.00,VWS V14.01,2013-04-30 08:25:00,
2013-04-30 10:30:00,59.0,48.9,30.11,ENE,69,4.0,5.0,69,0.00,,---,0.00,378.00,VWS V14.01,2013-04-30 08:30:00,
2013-04-30 10:40:00,59.0,49.2,30.11,ESE,117,0.0,5.0,70,0.00,,---,0.00,338.00,VWS V14.01,2013-04-30 08:40:00,
2013-04-30 10:45:00,59.4,49.2,30.11,NE,49,6.0,9.0,69,0.00,,---,0.00,381.00,VWS V14.01,2013-04-30 08:45:00,
2013-04-30 10:50:00,59.0,48.9,30.11,NNE,27,2.0,7.0,69,0.00,,---,0.00,366.00,VWS V14.01,2013-04-30 08:50:00,
2013-04-30 10:55:00,59.0,49.2,30.11,ENE,63,2.0,5.0,70,0.00,,---,0.00,380.00,VWS V14.01,2013-04-30 08:55:00,
2013-04-30 11:00:00,59.6,49.4,30.11,ENE,63,4.0,6.0,69,0.00,,---,0.00,366.00,VWS V14.01,2013-04-30 09:00:00,
2013-04-30 11:10:00,59.7,49.9,30.11,ENE,60,3.0,6.0,70,0.00,,---,0.00,431.00,VWS V14.01,2013-04-30 09:10:00,
2013-04-30 11:15:00,60.4,49.8,30.11,East,98,0.0,7.0,68,0.00,,---,0.00,316.00,VWS V14.01,2013-04-30 09:15:00,
2013-04-30 11:20:00,60.8,50.2,30.11,NE,40,0.0,9.0,68,0.00,,---,0.00,497.00,VWS V14.01,2013-04-30 09:20:00,
2013-04-30 11:25:00,61.0,50.0,30.11,ENE,65,0.0,4.0,67,0.00,,---,0.00,360.00,VWS V14.01,2013-04-30 09:25:00,
2013-04-30 11:30:00,60.4,50.2,30.10,NE,49,5.0,9.0,69,0.00,,---,0.00,306.00,VWS V14.01,2013-04-30 09:30:00,
2013-04-30 11:40:00,59.9,50.1,30.10,North,360,7.0,9.0,70,0.00,,---,0.00,413.00,VWS V14.01,2013-04-30 09:40:00,
2013-04-30 11:50:00,60.3,50.1,30.10,ENE,67,7.0,11.0,69,0.00,,---,0.00,362.00,VWS V14.01,2013-04-30 09:50:00,
2013-04-30 11:55:00,60.5,50.3,30.10,East,86,2.0,8.0,69,0.00,,---,0.00,330.00,VWS V14.01,2013-04-30 09:55:00,
2013-04-30 12:00:00,60.4,49.4,30.10,NE,50,8.0,11.0,67,0.00,,---,0.00,248.00,VWS V14.01,2013-04-30 10:00:00,
2013-04-30 12:10:00,60.7,50.1,30.10,NE,34,9.0,10.0,68,0.00,,---,0.00,640.00,VWS V14.01,2013-04-30 10:10:00,
2013-04-30 12:15:00,61.3,50.3,30.08,NE,40,1.0,7.0,67,0.00,,---,0.00,411.00,VWS V14.01,2013-04-30 10:15:00,
2013-04-30 12:25:00,61.3,49.9,30.08,East,100,6.0,12.0,66,0.00,,---,0.00,346.00,VWS V14.01,2013-04-30 10:25:00,
2013-04-30 12:30:00,61.1,49.7,30.08,East,86,6.0,10.0,66,0.00,,---,0.00,362.00,VWS V14.01,2013-04-30 10:30:00,
2013-04-30 12:35:00,60.9,49.9,30.08,East,96,5.0,11.0,67,0.00,,---,0.00,332.00,VWS V14.01,2013-04-30 10:35:00,
2013-04-30 12:40:00,60.8,49.8,30.08,East,96,7.0,9.0,67,0.00,,---,0.00,348.00,VWS V14.01,2013-04-30 10:40:00,
2013-04-30 12:45:00,61.0,50.0,30.08,East,99,7.0,7.0,67,0.00,,---,0.00,431.00,VWS V14.01,2013-04-30 10:45:00,
2013-04-30 12:50:00,61.1,49.7,30.08,ENE,63,3.0,7.0,66,0.00,,---,0.00,378.00,VWS V14.01,2013-04-30 10:50:00,
2013-04-30 13:00:00,62.1,50.2,30.08,East,101,7.0,9.0,65,0.00,,---,0.00,279.00,VWS V14.01,2013-04-30 11:00:00,
2013-04-30 13:10:00,61.6,49.7,30.08,ESE,103,6.0,7.0,65,0.00,,---,0.00,408.00,VWS V14.01,2013-04-30 11:10:00,
2013-04-30 13:20:00,62.7,50.4,30.07,ENE,61,4.0,9.0,64,0.00,,---,0.00,406.00,VWS V14.01,2013-04-30 11:20:00,
2013-04-30 13:25:00,62.7,50.8,30.07,NNE,19,4.0,10.0,65,0.00,,---,0.00,411.00,VWS V14.01,2013-04-30 11:25:00,
2013-04-30 13:35:00,62.4,50.9,30.07,NNW,333,4.0,10.0,66,0.00,,---,0.00,274.00,VWS V14.01,2013-04-30 11:35:00,
2013-04-30 13:40:00,62.1,50.6,30.07,NNE,21,9.0,15.0,66,0.00,,---,0.00,206.00,VWS V14.01,2013-04-30 11:40:00,
2013-04-30 13:45:00,61.8,50.7,30.06,NE,34,4.0,9.0,67,0.00,,---,0.00,188.00,VWS V14.01,2013-04-30 11:45:00,
2013-04-30 13:50:00,61.9,50.8,30.06,NE,37,0.0,10.0,67,0.00,,---,0.00,251.00,VWS V14.01,2013-04-30 11:50:00,
2013-04-30 13:55:00,62.1,51.0,30.06,East,91,5.0,9.0,67,0.00,,---,0.00,185.00,VWS V14.01,2013-04-30 11:55:00,
2013-04-30 14:00:00,62.1,50.6,30.06,ENE,78,9.0,12.0,66,0.00,,---,0.00,171.00,VWS V14.01,2013-04-30 12:00:00,
2013-04-30 14:10:00,62.2,50.7,30.06,NE,42,3.0,7.0,66,0.00,,---,0.00,223.00,VWS V14.01,2013-04-30 12:10:00,
2013-04-30 14:15:00,62.2,51.5,30.05,ENE,78,9.0,10.0,68,0.00,,---,0.00,262.00,VWS V14.01,2013-04-30 12:15:00,
2013-04-30 14:20:00,61.8,51.1,30.05,NNE,19,12.0,15.0,68,0.00,,---,0.00,318.00,VWS V14.01,2013-04-30 12:20:00,
2013-04-30 14:25:00,62.0,51.3,30.05,ENE,65,6.0,11.0,68,0.00,,---,0.00,274.00,VWS V14.01,2013-04-30 12:25:00,
2013-04-30 14:35:00,62.2,51.5,30.05,NE,38,3.0,10.0,68,0.00,,---,0.00,127.00,VWS V14.01,2013-04-30 12:35:00,
2013-04-30 14:40:00,62.2,51.5,30.05,NE,53,11.0,13.0,68,0.00,,---,0.00,148.00,VWS V14.01,2013-04-30 12:40:00,
2013-04-30 14:45:00,62.0,51.3,30.05,NNE,15,9.0,10.0,68,0.00,,---,0.00,134.00,VWS V14.01,2013-04-30 12:45:00,
2013-04-30 14:50:00,61.9,51.6,30.05,NNE,33,0.0,10.0,69,0.00,,---,0.00,167.00,VWS V14.01,2013-04-30 12:50:00,
2013-04-30 14:55:00,62.2,51.9,30.05,NE,52,6.0,9.0,69,0.00,,---,0.00,373.00,VWS V14.01,2013-04-30 12:55:00,
2013-04-30 15:00:00,62.7,51.6,30.05,NE,46,5.0,8.0,67,0.00,,---,0.00,557.00,VWS V14.01,2013-04-30 13:00:00,
2013-04-30 15:10:00,63.8,52.2,30.05,North,9,3.0,11.0,66,0.00,,---,0.00,715.00,VWS V14.01,2013-04-30 13:10:00,
2013-04-30 15:15:00,64.4,52.0,30.04,NE,47,7.0,11.0,64,0.00,,---,0.00,304.00,VWS V14.01,2013-04-30 13:15:00,
2013-04-30 15:20:00,64.1,51.7,30.04,NE,34,0.0,10.0,64,0.00,,---,0.00,278.00,VWS V14.01,2013-04-30 13:20:00,
2013-04-30 15:25:00,63.7,51.7,30.04,NNW,329,6.0,9.0,65,0.00,,---,0.00,274.00,VWS V14.01,2013-04-30 13:25:00,
2013-04-30 15:30:00,63.7,51.7,30.04,ENE,71,7.0,7.0,65,0.00,,---,0.00,294.00,VWS V14.01,2013-04-30 13:30:00,
2013-04-30 15:40:00,64.4,52.0,30.04,NE,48,7.0,13.0,64,0.00,,---,0.00,285.00,VWS V14.01,2013-04-30 13:40:00,
2013-04-30 15:45:00,64.4,52.0,30.04,ENE,69,10.0,10.0,64,0.00,,---,0.00,251.00,VWS V14.01,2013-04-30 13:45:00,
2013-04-30 15:50:00,64.3,51.9,30.04,ENE,61,4.0,7.0,64,0.00,,---,0.00,192.00,VWS V14.01,2013-04-30 13:50:00,
2013-04-30 15:55:00,64.3,51.9,30.04,ENE,71,10.0,12.0,64,0.00,,---,0.00,248.00,VWS V14.01,2013-04-30 13:55:00,
2013-04-30 16:00:00,64.2,51.8,30.03,NNE,32,10.0,12.0,64,0.00,,---,0.00,200.00,VWS V14.01,2013-04-30 14:00:00,
2013-04-30 16:05:00,64.0,51.2,30.03,ENE,66,6.0,10.0,63,0.00,,---,0.00,171.00,VWS V14.01,2013-04-30 14:05:00,
2013-04-30 16:15:00,63.6,51.2,30.03,NE,51,9.0,11.0,64,0.00,,---,0.00,88.00,VWS V14.01,2013-04-30 14:15:00,
2013-04-30 16:20:00,63.4,51.0,30.03,North,360,6.0,8.0,64,0.00,,---,0.00,77.00,VWS V14.01,2013-04-30 14:20:00,
2013-04-30 16:25:00,63.3,50.9,30.03,ENE,64,5.0,10.0,64,0.00,,---,0.00,97.00,VWS V14.01,2013-04-30 14:25:00,
2013-04-30 16:30:00,63.4,51.0,30.03,East,79,9.0,11.0,64,0.00,,---,0.00,90.00,VWS V14.01,2013-04-30 14:30:00,
2013-04-30 16:35:00,63.3,50.9,30.03,NE,46,6.0,10.0,64,0.00,,---,0.00,81.00,VWS V14.01,2013-04-30 14:35:00,
2013-04-30 16:45:00,63.3,50.9,30.02,NE,41,5.0,11.0,64,0.00,,---,0.00,65.00,VWS V14.01,2013-04-30 14:45:00,
2013-04-30 16:55:00,63.1,51.2,30.02,NE,46,7.0,13.0,65,0.00,,---,0.00,53.00,VWS V14.01,2013-04-30 14:55:00,
2013-04-30 17:00:00,63.1,51.2,30.03,NNE,28,9.0,9.0,65,0.00,,---,0.00,47.00,VWS V14.01,2013-04-30 15:00:00,
2013-04-30 17:05:00,63.0,51.1,30.03,ENE,63,2.0,7.0,65,0.00,,---,0.00,39.00,VWS V14.01,2013-04-30 15:05:00,
2013-04-30 17:10:00,62.9,51.4,30.03,NNE,30,0.0,8.0,66,0.00,,---,0.00,42.00,VWS V14.01,2013-04-30 15:10:00,
2013-04-30 17:15:00,62.9,51.4,30.03,NE,51,3.0,7.0,66,0.00,,---,0.00,37.00,VWS V14.01,2013-04-30 15:15:00,
2013-04-30 17:20:00,62.7,50.8,30.03,NE,55,4.0,10.0,65,0.00,,---,0.00,39.00,VWS V14.01,2013-04-30 15:20:00,
2013-04-30 17:25:00,62.6,51.1,30.03,ENE,59,7.0,10.0,66,0.00,,---,0.00,33.00,VWS V14.01,2013-04-30 15:25:00,
2013-04-30 17:35:00,62.5,51.0,30.02,NE,37,3.0,6.0,66,0.00,,---,0.00,30.00,VWS V14.01,2013-04-30 15:35:00,
2013-04-30 17:40:00,62.4,51.3,30.02,NE,51,5.0,16.0,67,0.00,,---,0.00,26.00,VWS V14.01,2013-04-30 15:40:00,
2013-04-30 17:50:00,61.6,51.0,30.03,North,360,6.0,17.0,68,0.00,,---,0.00,26.00,VWS V14.01,2013-04-30 15:50:00,
2013-04-30 17:55:00,61.2,51.0,30.03,NNE,17,9.0,13.0,69,0.00,,---,0.00,28.00,VWS V14.01,2013-04-30 15:55:00,
2013-04-30 18:00:00,60.8,50.6,30.02,ENE,64,11.0,14.0,69,0.00,,---,0.00,30.00,VWS V14.01,2013-04-30 16:00:00,
2013-04-30 18:10:00,60.0,50.2,30.02,NNE,14,6.0,12.0,70,0.00,,---,0.00,30.00,VWS V14.01,2013-04-30 16:10:00,
2013-04-30 18:15:00,59.5,49.7,30.02,NNE,23,12.0,17.0,70,0.00,,---,0.00,28.00,VWS V14.01,2013-04-30 16:15:00,
2013-04-30 18:20:00,59.0,49.2,30.02,ENE,71,2.0,12.0,70,0.00,,---,0.00,26.00,VWS V14.01,2013-04-30 16:20:00,
2013-04-30 18:25:00,58.9,49.2,30.02,North,11,10.0,16.0,70,0.00,,---,0.00,28.00,VWS V14.01,2013-04-30 16:25:00,
2013-04-30 18:35:00,58.2,48.8,30.04,NNE,32,6.0,13.0,71,0.00,,---,0.00,26.00,VWS V14.01,2013-04-30 16:35:00,
2013-04-30 18:40:00,58.0,48.7,30.04,NE,47,9.0,9.0,71,0.00,,---,0.00,32.00,VWS V14.01,2013-04-30 16:40:00,
2013-04-30 18:50:00,57.8,48.5,30.04,NNE,24,4.0,14.0,71,0.00,,---,0.00,23.00,VWS V14.01,2013-04-30 16:50:00,
2013-04-30 18:55:00,57.7,48.8,30.04,NE,40,9.0,9.0,72,0.00,,---,0.00,21.00,VWS V14.01,2013-04-30 16:55:00,
2013-04-30 19:00:00,57.4,47.7,30.04,NNE,24,14.0,16.0,70,0.00,,---,0.00,18.00,VWS V14.01,2013-04-30 17:00:00,
2013-04-30 19:10:00,56.9,47.2,30.04,NNE,13,5.0,12.0,70,0.00,,---,0.00,14.00,VWS V14.01,2013-04-30 17:10:00,
2013-04-30 19:15:00,56.9,47.6,30.05,NNE,30,4.0,9.0,71,0.00,,---,0.00,14.00,VWS V14.01,2013-04-30 17:15:00,
2013-04-30 19:20:00,56.7,47.4,30.05,NNE,24,9.0,16.0,71,0.00,,---,0.00,11.00,VWS V14.01,2013-04-30 17:20:00,
2013-04-30 19:25:00,56.5,47.2,30.05,NE,51,6.0,15.0,71,0.00,,---,0.00,9.00,VWS V14.01,2013-04-30 17:25:00,
2013-04-30 19:30:00,56.3,47.0,30.05,NNE,24,14.0,16.0,71,0.00,,---,0.00,7.00,VWS V14.01,2013-04-30 17:30:00,
2013-04-30 19:35:00,56.0,46.7,30.05,North,355,5.0,16.0,71,0.00,,---,0.00,7.00,VWS V14.01,2013-04-30 17:35:00,
2013-04-30 19:40:00,55.9,46.7,30.05,North,360,7.0,16.0,71,0.00,,---,0.00,5.00,VWS V14.01,2013-04-30 17:40:00,
2013-04-30 19:45:00,55.8,46.9,30.05,NNE,28,3.0,14.0,72,0.00,,---,0.00,0.00,VWS V14.01,2013-04-30 17:45:00,
2013-04-30 19:50:00,55.8,46.9,30.05,NNE,15,3.0,11.0,72,0.00,,---,0.00,0.00,VWS V14.01,2013-04-30 17:50:00,
2013-04-30 19:55:00,55.7,46.8,30.05,North,5,8.0,10.0,72,0.00,,---,0.00,0.00,VWS V14.01,2013-04-30 17:55:00,
2013-04-30 20:00:00,55.5,46.6,30.05,NNW,347,7.0,12.0,72,0.00,,---,0.00,0.00,VWS V14.01,2013-04-30 18:00:00,
2013-04-30 20:05:00,55.5,46.6,30.05,NE,55,9.0,13.0,72,0.00,,---,0.00,0.00,VWS V14.01,2013-04-30 18:05:00,
2013-04-30 20:10:00,55.4,46.5,30.05,North,10,5.0,13.0,72,0.00,,---,0.00,0.00,VWS V14.01,2013-04-30 18:10:00,
2013-04-30 20:20:00,55.2,46.3,30.06,NE,46,9.0,11.0,72,0.00,,---,0.00,0.00,VWS V14.01,2013-04-30 18:20:00,
2013-04-30 20:30:00,55.0,46.5,30.07,North,360,4.0,9.0,73,0.00,,---,0.00,0.00,VWS V14.01,2013-04-30 18:30:00,
2013-04-30 20:40:00,54.7,46.2,30.07,NNE,32,4.0,10.0,73,0.00,,---,0.00,0.00,VWS V14.01,2013-04-30 18:40:00,
2013-04-30 20:50:00,54.5,46.4,30.08,North,5,3.0,6.0,74,0.00,,---,0.00,0.00,VWS V14.01,2013-04-30 18:50:00,
2013-04-30 20:55:00,54.4,46.3,30.08,NNE,14,3.0,7.0,74,0.00,,---,0.00,0.00,VWS V14.01,2013-04-30 18:55:00,
2013-04-30 21:00:00,54.3,46.2,30.08,North,9,9.0,9.0,74,0.00,,---,0.00,0.00,VWS V14.01,2013-04-30 19:00:00,
2013-04-30 21:10:00,54.1,46.4,30.08,NNE,28,0.0,8.0,75,0.00,,---,0.00,0.00,VWS V14.01,2013-04-30 19:10:00,
2013-04-30 21:15:00,54.0,46.6,30.10,North,5,0.0,6.0,76,0.00,,---,0.00,0.00,VWS V14.01,2013-04-30 19:15:00,
2013-04-30 21:20:00,53.9,46.5,30.10,NNW,347,10.0,10.0,76,0.00,,---,0.00,0.00,VWS V14.01,2013-04-30 19:20:00,
2013-04-30 21:25:00,53.6,46.6,30.10,North,360,12.0,12.0,77,0.00,,---,0.00,0.00,VWS V14.01,2013-04-30 19:25:00,
2013-04-30 21:30:00,53.3,46.6,30.10,NNE,14,6.0,12.0,78,0.00,,---,0.00,0.00,VWS V14.01,2013-04-30 19:30:00,
2013-04-30 21:35:00,53.1,46.8,30.10,ENE,71,2.0,14.0,79,0.00,,---,0.00,0.00,VWS V14.01,2013-04-30 19:35:00,
2013-04-30 21:40:00,52.9,46.6,30.10,North,355,12.0,12.0,79,0.00,,---,0.00,0.00,VWS V14.01,2013-04-30 19:40:00,
2013-04-30 21:45:00,52.6,46.6,30.10,NNW,334,5.0,7.0,80,0.00,,---,0.00,0.00,VWS V14.01,2013-04-30 19:45:00,
2013-04-30 21:50:00,52.2,46.5,30.10,NNE,22,4.0,12.0,81,0.00,,---,0.00,0.00,VWS V14.01,2013-04-30 19:50:00,
2013-04-30 22:00:00,51.7,46.4,30.10,WNW,298,10.0,15.0,82,0.00,,---,0.00,0.00,VWS V14.01,2013-04-30 20:00:00,
2013-04-30 22:05:00,51.5,46.5,30.10,NE,48,2.0,13.0,83,0.00,,---,0.00,0.00,VWS V14.01,2013-04-30 20:05:00,
2013-04-30 22:10:00,51.4,46.7,30.10,North,9,7.0,11.0,84,0.00,,---,0.00,0.00,VWS V14.01,2013-04-30 20:10:00,
2013-04-30 22:15:00,51.3,46.6,30.11,NNE,27,5.0,13.0,84,0.00,,---,0.00,0.00,VWS V14.01,2013-04-30 20:15:00,
2013-04-30 22:25:00,50.9,46.6,30.11,NNE,29,2.0,10.0,85,0.00,,---,0.00,0.00,VWS V14.01,2013-04-30 20:25:00,
2013-04-30 22:30:00,50.9,46.6,30.10,NNE,22,5.0,9.0,85,0.00,,---,0.00,0.00,VWS V14.01,2013-04-30 20:30:00,
2013-04-30 22:35:00,50.8,46.8,30.10,NE,42,3.0,7.0,86,0.00,,---,0.00,0.00,VWS V14.01,2013-04-30 20:35:00,
2013-04-30 22:40:00,50.7,46.7,30.10,NNE,26,7.0,9.0,86,0.00,,---,0.00,0.00,VWS V14.01,2013-04-30 20:40:00,
2013-04-30 22:45:00,50.5,46.5,30.11,North,360,4.0,6.0,86,0.00,,---,0.00,0.00,VWS V14.01,2013-04-30 20:45:00,
2013-04-30 22:55:00,50.4,46.7,30.11,NNE,32,0.0,5.0,87,0.00,,---,0.00,0.00,VWS V14.01,2013-04-30 20:55:00,
2013-04-30 23:00:00,50.4,46.7,30.12,NNE,22,4.0,6.0,87,0.01,,---,0.01,0.00,VWS V14.01,2013-04-30 21:00:00,
2013-04-30 23:05:00,50.3,46.6,30.12,North,360,1.0,9.0,87,0.01,,---,0.01,0.00,VWS V14.01,2013-04-30 21:05:00,
2013-04-30 23:10:00,50.2,46.8,30.12,NNE,30,6.0,12.0,88,0.01,,---,0.01,0.00,VWS V14.01,2013-04-30 21:10:00,
2013-04-30 23:20:00,50.1,46.7,30.13,NNE,30,0.0,10.0,88,0.01,,---,0.01,0.00,VWS V14.01,2013-04-30 21:20:00,
2013-04-30 23:25:00,50.0,46.6,30.13,North,360,0.0,5.0,88,0.01,,---,0.01,0.00,VWS V14.01,2013-04-30 21:25:00,
2013-04-30 23:30:00,49.9,46.5,30.13,NNW,334,9.0,10.0,88,0.01,,---,0.01,0.00,VWS V14.01,2013-04-30 21:30:00,
2013-04-30 23:35:00,49.9,46.5,30.13,North,5,6.0,7.0,88,0.01,,---,0.01,0.00,VWS V14.01,2013-04-30 21:35:00,
2013-04-30 23:40:00,49.8,46.4,30.13,North,9,3.0,7.0,88,0.01,,---,0.01,0.00,VWS V14.01,2013-04-30 21:40:00,
2013-04-30 23:45:00,49.8,46.4,30.13,North,5,0.0,5.0,88,0.01,,---,0.01,0.00,VWS V14.01,2013-04-30 21:45:00,
2013-04-30 23:55:00,49.8,46.4,30.13,NNE,20,4.0,9.0,88,0.01,,---,0.01,0.00,VWS V14.01,2013-04-30 21:55:00,